Location: Milton Keynes
(52.0316°N, 0.7531°W)
Time: 23:15:15
(UTC+00:00)

BlueWalker 3 - Pass Details

Date: 23 December 2025
Orbit: 451 x 463 km, 53.2° (Epoch: 15 January)

Event Time Altitude Azimuth Distance (km) Brightness Sun altitude
Exits shadow 06:05:24 - 209° (SSW) 1,975 4.8 -17.8°
Reaches altitude 10° 06:06:29 10° 202° (SSW) 1,586 4.4 -17.6°
Maximum altitude 06:09:31 26° 144° (SE) 921 3.8 -17.2°
Drops below altitude 10° 06:12:35 10° 85° (E) 1,599 5.6 -16.7°
Sets 06:14:56 0° 73° (ENE) 2,479 6.4 -16.4°
